Weather History for Frenchville, ME

Change the Weather History Date:

Friday, November 29, 2013

  Actual Average Record
Temperature  
Mean Temperature 13 °F 24 °F  
Max Temperature 18 °F 30 °F 55 °F (2003)
Min Temperature 8 °F 18 °F 3 °F (2002)
Degree Days  
Heating Degree Days 52    
Month to date heating degree days 1006  
Since 1 July heating degree days 2077  
Cooling Degree Days 0    
Month to date cooling degree days 0  
Year to date cooling degree days 139  
Moisture  
Dew Point 5 °F    
Average Humidity 72    
Maximum Humidity 87    
Minimum Humidity 54    
Precipitation  
Precipitation T in 0.10 in 0.80 in (2004)
Month to date precipitation 2.67 2.85  
Year to date precipitation 33.10 30.97  
Sea Level Pressure  
Sea Level Pressure 30.43 in    
Wind  
Wind Speed 10 mph (NW)    
Max Wind Speed 20 mph    
Max Gust Speed 26 mph    
Visibility 10 miles    
Events Snow    
T = Trace of Precipitation, MM = Missing Value Source: NWS Daily Summary

Daily Weather History Graph

Daily Weather History Graph

Search for Another Location

Airport:

Trip Planner

Search our weather history database for the weather conditions in past years. The results will help you decide how hot, cold, wet, or windy it might be!

Date:

Astronomy

Nov. 29, 2013 Rise Set
Actual Time 6:57 AM EST 3:45 PM EST
Civil Twilight 6:22 AM EST 4:20 PM EST
Nautical Twilight 5:44 AM EST 4:58 PM EST
Astronomical Twilight 5:07 AM EST 5:35 PM EST
Moon 2:45 AM EST (11/29) 1:40 PM EST (11/29)
Length of Visible Light 9h 58m
Length of Day
8h 48m
Waning Crescent, 14% of the Moon is Illuminated
Nov 29
Waning Crescent
Dec 2
New
Dec 9
First Quarter
Dec 17
Full
Dec 25
Last Quarter

Hourly Weather History & Observations

Time (EST) Temp. Windchill Dew Point Humidity Pressure Visibility Wind Dir Wind Speed Gust Speed Precip Events Conditions
12:53 AM 10.9 °F -0.8 °F 3.0 °F 70% 30.20 in 10.0 mi West 8.1 mph - N/A   Clear
1:53 AM 10.0 °F -0.9 °F 1.9 °F 70% 30.23 in 10.0 mi WNW 6.9 mph - N/A   Clear
2:53 AM 10.0 °F -2.9 °F 1.0 °F 67% 30.25 in 10.0 mi West 9.2 mph - N/A   Clear
3:53 AM 10.0 °F -5.2 °F 1.9 °F 70% 30.27 in 10.0 mi West 12.7 mph - N/A   Clear
4:53 AM 9.0 °F -3.2 °F 1.9 °F 73% 30.28 in 10.0 mi WNW 8.1 mph - N/A   Clear
5:53 AM 9.0 °F -3.2 °F 1.9 °F 73% 30.33 in 10.0 mi NW 8.1 mph 17.3 mph N/A   Clear
6:42 AM 9.0 °F -5.1 °F 1.9 °F 73% 30.29 in 10.0 mi NW 10.4 mph - N/A   Mostly Cloudy
6:53 AM 9.0 °F -5.9 °F 1.9 °F 73% 30.36 in 10.0 mi NW 11.5 mph - N/A   Overcast
7:30 AM 9.0 °F -5.9 °F 1.9 °F 73% 30.32 in 10.0 mi NW 11.5 mph - N/A   Overcast
7:53 AM 10.0 °F -5.9 °F 1.9 °F 70% 30.39 in 10.0 mi WNW 13.8 mph - N/A   Overcast
8:51 AM 10.4 °F -3.3 °F 3.2 °F 73% 30.35 in 10.0 mi WNW 10.4 mph - N/A   Scattered Clouds
8:53 AM 10.9 °F 0.2 °F 3.0 °F 70% 30.42 in 10.0 mi NW 6.9 mph - N/A   Partly Cloudy
9:53 AM 14.0 °F -0.2 °F 3.0 °F 62% 30.43 in 10.0 mi NW 12.7 mph - N/A   Clear
10:53 AM 15.1 °F -0.6 °F 3.0 °F 59% 30.44 in 10.0 mi NNW 16.1 mph - N/A   Scattered Clouds
11:53 AM 17.1 °F 1.0 °F 3.0 °F 54% 30.44 in 10.0 mi NW 18.4 mph 25.3 mph N/A   Partly Cloudy
12:53 PM 17.1 °F 3.0 °F 5.0 °F 59% 30.44 in 10.0 mi NNW 13.8 mph 19.6 mph N/A   Overcast
1:53 PM 17.1 °F 2.5 °F 6.1 °F 62% 30.46 in 10.0 mi WNW 15.0 mph - N/A   Overcast
2:39 PM 16.0 °F 1.7 °F 8.1 °F 71% 30.42 in 7.0 mi NNW 13.8 mph - 0.00 in   Overcast
2:48 PM 15.8 °F 5.1 °F 8.6 °F 73% 30.42 in 6.0 mi NNW 8.1 mph - 0.00 in Snow Light Snow
2:53 PM 16.0 °F 3.6 °F 9.0 °F 74% 30.48 in 8.0 mi NNW 10.4 mph - 0.00 in Snow Light Snow
3:53 PM 16.0 °F 3.6 °F 6.1 °F 65% 30.50 in 10.0 mi NW 10.4 mph - 0.00 in   Overcast
4:53 PM 14.0 °F 2.0 °F 6.1 °F 71% 30.53 in 10.0 mi NW 9.2 mph - N/A   Clear
5:53 PM 12.9 °F 2.6 °F 6.1 °F 74% 30.55 in 10.0 mi NW 6.9 mph - N/A   Partly Cloudy
6:53 PM 12.9 °F 0.7 °F 7.0 °F 77% 30.57 in 10.0 mi NW 9.2 mph - N/A   Clear
7:53 PM 12.0 °F 1.5 °F 7.0 °F 80% 30.58 in 10.0 mi NW 6.9 mph - N/A   Clear
8:53 PM 12.0 °F 1.5 °F 7.0 °F 80% 30.60 in 10.0 mi NW 6.9 mph - N/A   Clear
9:53 PM 10.0 °F -1.9 °F 6.1 °F 84% 30.61 in 10.0 mi West 8.1 mph - N/A   Partly Cloudy
10:53 PM 10.0 °F -3.7 °F 7.0 °F 87% 30.62 in 10.0 mi West 10.4 mph - N/A   Clear
11:46 PM 10.0 °F -1.9 °F 7.0 °F 87% 30.57 in 10.0 mi West 8.1 mph - N/A   Overcast
11:53 PM 10.0 °F -1.9 °F 6.1 °F 84% 30.63 in 10.0 mi West 8.1 mph - N/A   Mostly Cloudy